Regional Weather Roundup
Issued by NWS

Home | Current Version | Previous Version | Text Only | Print | Product List | Glossary On
Versions: 1 2 3 4 5 6 7 8 9 10 11 12 13 14 15 16 17 18 19 20 21 22 23 24 25 26 27 28 29 30 31 32 33 34 35 36 37 38 39 40 41 42 43 44 45 46 47 48 49 50
000
ASUS45 KSLC 302210
RWRUT

UTAH REGIONAL WEATHER ROUNDUP
NATIONAL WEATHER SERVICE SALT LAKE CITY UT
300 PM MST FRI JAN 30 2015

UTZ001>011-023>025-302300-

NORTHERN UTAH

CITY           SKY/WX    TMP DP  RH WIND       PRES   REMARKS
BRIGHAM CITY   CLOUDY    48  33  56 W3        30.04S
HILL AFB       MOSUNNY   46  27  46 VRB2      30.02F
LOGAN          CLOUDY    39  34  82 W3        30.07F
OGDEN          CLOUDY    47  34  60 NW5       30.02F
PROVO AIRPORT  CLOUDY    41  36  81 NW16      30.00F
SALT LAKE CITY LGT RAIN  43  36  76 W3        30.03F
VERNAL         LGT RAIN  41  37  86 CALM      30.06F
WENDOVER       CLOUDY    46  34  61 N14       30.04F
HEBER CITY     MIX PCPN  37  32  81 S3        30.05S
WEST JORDAN    CLOUDY    41  37  87 CALM      30.04F

$$

UTZ012>022-026-027-302300-

SOUTHERN/CENTRAL UTAH

CITY           SKY/WX    TMP DP  RH WIND       PRES   REMARKS
BLANDING       CLOUDY    34  34 100 SE5       30.10F WCI  30
BRYCE CANYON   LGT SNOW  32  30  92 S7        29.95F WCI  26
CEDAR CITY     CLOUDY    43  38  82 CALM      29.87F
DELTA          CLOUDY    43  41  94 N10       29.97F
HANKSVILLE     CLOUDY    43  37  81 CALM      30.03F
MILFORD        CLOUDY    42  39  89 N17       29.92F
MOAB/CYNLANDS  LGT RAIN  44  42  93 E5        30.01F
PRICE          LGT RAIN  40  36  86 CALM      30.02F
ST GEORGE      CLOUDY    48  45  87 W5        29.90F
KANAB            N/A     39  34  81 N10       29.96F WCI  32

$$

REGIONAL REPORTS     COLORADO/ARIZONA

CITY           SKY/WX    TMP DP  RH WIND       PRES   REMARKS
CRAIG, CO      CLOUDY    38  32  79 SW3       30.05S
GRAND JUNCTION LGT RAIN  45  37  73 S7        30.02F
RIFLE          CLOUDY    44  30  57 CALM      30.02F
MONTROSE       CLOUDY    42  36  79 NW7       30.04F
CORTEZ         LGT RAIN  37  35  92 W8        30.04F WCI  31
PAGE, AZ       NOT AVBL
GRAND CANYON   LGT RAIN  38  36  92 E8G17     29.90F WCI  32
KINGMAN        CLOUDY    49  46  90 NE3       29.85S
FLAGSTAFF      LGT RAIN  41  38  89 S8        29.91F

$$

REGIONAL REPORTS    NEVADA/IDAHO/WYOMING

CITY           SKY/WX    TMP DP  RH WIND       PRES   REMARKS
LAS VEGAS, NV  CLOUDY    54  45  71 NW7       29.83F
ELY            CLOUDY    40  35  83 N21G29    29.96F WCI  30
ELKO           CLOUDY    48  32  53 NE12      30.01F
POCATELLO, ID  SUNNY     41  32  70 NW3       30.13F
BURLEY         PTSUNNY   40  31  70 W8        30.14S WCI  34
EVANSTON, WY   CLOUDY    34  27  75 N7        30.07F WCI  28
ROCK SPRINGS   CLOUDY    37  31  78 NE7       30.09S WCI  32
KEMMERER       CLOUDY    34  25  69 NE12      30.10S WCI  25

$$



USA.gov is the U.S. government's official web portal to all federal, state and local government web resources and services.